This demonstration page uses our WeatherBlox Daily Observations layout. Learn more.

Left ArrowRight Arrow

Hourly Observations for July 5, 2022

Temp ( °F °C ) Dew Point ( °F °C ) Humidity (%) Winds ( mph kmh ) Pressure ( in mb ) Visibility ( mi km ) Precip ( " mm )
12:53 am 00:53 Clear 89 31.7 64 17.8 43 43 SSE 12 19 29.94 1014 10 16 0.00 0.00
1:53 am 01:53 Clear 87 30.6 65 18.3 48 48 S 9 15 29.94 1014 10 16 0.00 0.00
2:53 am 02:53 Clear 85 29.4 65 18.3 51 51 S 7 11 29.94 1014 10 16 0.00 0.00
3:53 am 03:53 Clear 84 28.9 67 19.4 57 57 S 9 15 29.94 1014 10 16 0.00 0.00
4:53 am 04:53 Clear 83 28.3 68 20 61 61 S 8 13 29.95 1014 10 16 0.00 0.00
5:53 am 05:53 Mostly Clear 82 27.8 68 20 63 63 S 9 15 29.96 1015 10 16 0.00 0.00
6:53 am 06:53 Mostly Sunny 82 27.8 68 20 63 63 VRB 5 7 29.98 1015 10 16 0.00 0.00
7:53 am 07:53 Mostly Sunny 84 28.9 68 20 59 59 SSW 13 20 29.98 1015 10 16 0.00 0.00
8:53 am 08:53 Mostly Sunny 86 30 68 20 55 55 SSW 9 15 29.99 1016 10 16 0.00 0.00
9:53 am 09:53 Sunny 88 31.1 68 20 52 52 SW 8 13 29.98 1015 10 16 0.00 0.00
10:53 am 10:53 Mostly Sunny 91 32.8 68 20 47 47 S 7 11 29.98 1015 10 16 0.00 0.00
11:53 am 11:53 Mostly Sunny 93 33.9 68 20 44 44 S 12 19 29.98 1015 10 16 0.00 0.00
12:53 pm 12:53 Mostly Sunny 94 34.4 69 20.6 44 44 VRB 6 9 29.96 1015 10 16 0.00 0.00
12:57 pm 12:57 Mostly Sunny 95 35 69 20.6 43 43 S 9 15 29.94 1014 10 16 0.00 0.00
1:53 pm 13:53 Mostly Sunny 96 35.6 67 19.4 39 39 S 8 13 29.93 1014 10 16 0.00 0.00
2:53 pm 14:53 Mostly Sunny 98 36.7 66 18.9 35 35 VRB 7 11 29.90 1013 10 16 0.00 0.00
3:02 pm 15:02 Mostly Sunny 99 37 66 19 35 35 S 8 13 29.89 1012 10 16 0.00 0.00
3:53 pm 15:53 Mostly Sunny 99 37.2 66 18.9 34 34 SSE 9 15 29.88 1012 10 16 0.00 0.00
4:53 pm 16:53 Mostly Sunny 100 37.8 64 17.8 31 31 SE 13 20 29.86 1011 10 16 0.00 0.00
5:53 pm 17:53 Mostly Sunny 100 37.8 63 17.2 30 30 SSE 8 13 29.85 1011 10 16 0.00 0.00
6:53 pm 18:53 Mostly Sunny 99 37.2 62 16.7 30 30 SSE 8 13 29.84 1011 10 16 0.00 0.00
7:53 pm 19:53 Sunny 98 36.7 62 16.7 31 31 SSE 15 24 29.84 1010 10 16 0.00 0.00
8:53 pm 20:53 Clear 95 35 64 17.8 36 36 SE 14 22 29.85 1011 10 16 0.00 0.00
9:53 pm 21:53 Clear 94 34.4 64 17.8 37 37 SSE 9 15 29.86 1011 10 16 0.00 0.00
10:53 pm 22:53 Mostly Clear 92 33.3 64 17.8 40 40 SSE 8 13 29.88 1012 10 16 0.00 0.00
11:53 pm 23:53 Mostly Clear 91 32.8 64 17.8 41 41 SSE 10 17 29.89 1012 10 16 0.00 0.00

Powered by AerisWeather